カタログに戻る

COSMOS 2110

GLONASS

運用中ナビゲーションMEO
NORAD 21007·PAYLOAD·🇷🇺 Russia

打ち上げ Dec 8, 1990 から Baikonur Cosmodrome

Loading…

次のパス (今後24時間)

TLE

最新Source: Space-Track

元期: Sep 11, 2026, 15:17 UTC

1 21007U 90110B   26254.63727700  .00000002  00000-0  00000-0 0  9994
2 21007  64.9932  68.6077 0043038 200.4191 159.5805  2.13101425278317

AllMySatでCOSMOS 2110をリアルタイム追跡

Download on the App Store